Regional Weather Roundup
Issued by NWS

Home | Current Version | Previous Version | Text Only | Print | Product List | Glossary Off
Versions: 1 2 3 4 5 6 7 8 9 10 11 12 13 14 15 16 17 18 19 20 21 22 23 24 25 26 27 28 29 30 31 32 33 34 35 36 37 38 39 40 41 42 43 44 45 46 47 48 49 50

000
ASUS43 KIND 271009
RWRIN

WEATHER ROUNDUP FOR INDIANA
NATIONAL WEATHER SERVICE INDIANAPOLIS IN
500 AM EST SAT DEC 27 2014

NOTE: "FAIR" INDICATES FEW OR NO CLOUDS BELOW 12,000 FEET WITH NO
SIGNIFICANT WEATHER AND/OR OBSTRUCTIONS TO VISIBILITY.

* - STATION DOES NOT REPORT WEATHER SUCH AS PRECIPITATION OR FOG.

+ - STATION NOT QUALITY CONTROLLED BY THE NATIONAL WEATHER SERVICE.
    USE DATA WITH CAUTION...ESPECIALLY DEWPOINT AND RELATIVE
    HUMIDITY OBSERVATIONS.

INZ001>003-010>013-019-020-271100-
NORTHWEST INDIANA

CITY           SKY/WX    TMP DP  RH WIND       PRES   REMARKS
KNOX *+        CLOUDY    45  40  84 S13       30.03F
LA PORTE +     LGT RAIN  46  46 100 S9        30.03F
MICHIGAN CITY+ DRIZZLE   45  43  93 S9        30.02F
MONTICELLO +   RAIN      44  41  89 S12       30.05F
RENSSELAER +   CLOUDY    45  45 100 S13G18    30.04F
VALPARAISO     CLOUDY    45  43  93 S14G20    30.03F

$$

LMZ046-743>745-271100-
SOUTHERN LAKE MICHIGAN

STATION/POSITION TIME  TEMP WIND        PRES
                       AIR  DIR/SP/G
                 (UTC) (F)  (DEG/KT/KT) (MB)
MICHIGAN CITY    1000   45  170/ 13/ 19   N/A

$$

INZ004-005-014>016-021>024-271100-
NORTH CENTRAL INDIANA

CITY           SKY/WX    TMP DP  RH WIND       PRES   REMARKS
GOSHEN         LGT RAIN  45  43  93 S10       30.05F FOG
LOGANSPORT +   LGT RAIN  43  37  81 S12       30.08F
PERU/GRISSOM   LGT RAIN  46  45  97 S10       30.08F
ROCHESTER +    LGT RAIN  46  43  87 S9        30.06F
SOUTH BEND     LGT RAIN  46  44  93 S12       30.04F FOG
WARSAW +       LGT RAIN  45  41  87 S7        30.06F

$$

INZ006>009-017-018-025>027-271100-
NORTHEAST INDIANA

CITY           SKY/WX    TMP DP  RH WIND       PRES   REMARKS
ANGOLA *+      CLOUDY    45  39  81 SW8       30.07F
AUBURN +       CLOUDY    46  39  76 S5        30.09F
FORT WAYNE     CLOUDY    45  40  82 S10       30.10F
HUNTINGTON +   CLOUDY    45  40  83 S7        30.08F

$$

INZ028-029-035-036-043>045-051>053-271100-
WEST CENTRAL INDIANA

CITY           SKY/WX    TMP DP  RH WIND       PRES   REMARKS
GREENCASTLE +  LGT RAIN  43  37  81 S7        30.12F
LAFAYETTE      LGT RAIN  44  41  89 S7        30.07F
TERRE HAUTE    LGT RAIN  44  41  89 S12       30.12F FOG

$$

INZ030>032-037>040-046>048-054>057-064-065-271100-
CENTRAL INDIANA

CITY           SKY/WX    TMP DP  RH WIND       PRES   REMARKS
CP ATTERBURY + CLOUDY    43  34  70 MISG      30.15F
FRANKFORT +    LGT RAIN  45  39  81 S13       30.11S
INDIANAPOLIS   LGT RAIN  44  36  73 S12       30.11F
-EAGLE CREEK   LGT RAIN  45  36  70 S5        30.11F
KOKOMO *+      CLOUDY    46  37  71 S12       30.09S
MARION +       CLOUDY    44  38  79 S10       30.10F
MT COMFORT *+  PTCLDY    43  32  65 S8        30.13F
SHELBYVILLE    CLOUDY    45  34  65 S12       30.14S
ZIONSVILLE +   DRIZZLE   46  34  63 S10       30.11F

$$

INZ033-034-041-042-049-050-058-059-271100-
EAST CENTRAL INDIANA

CITY           SKY/WX    TMP DP  RH WIND       PRES   REMARKS
MUNCIE         CLOUDY    47  35  63 SW13      30.11F

$$

INZ060-061-067>069-081>083-085>088-271100-
SOUTHWEST INDIANA

CITY           SKY/WX    TMP DP  RH WIND       PRES   REMARKS
EVANSVILLE     LGT RAIN  48  41  76 S5        30.16S
HUNTINGBURG *+ CLOUDY    46  37  71 S3        30.16F
WASHINGTON +   DRIZZLE   43  39  87 SE5       30.14F

$$

INZ062-063-066-070>080-084-089>092-271100-
SOUTH CENTRAL AND SOUTHEAST INDIANA

CITY           SKY/WX    TMP DP  RH WIND       PRES   REMARKS
BLOOMINGTON    LGT RAIN  41  38  89 S6        30.14F

$$




USA.gov is the U.S. government's official web portal to all federal, state and local government web resources and services.